Find Muduo 1A

NORAD ID: 100469 Int'l Des: NNA 2026-195 Owner: BNU Country: CN operational
又名: OBJECT E spacetrack, celestrak

当前视图

正在加载3D地球...

About Muduo 1A

Muduo 1A (NORAD 100469) is a satellite launched Aug 25, 2026 by BNU of CN. with a mass of 50.00 kg.

即将过境

Passes for default location (London). Set your location on the main map for personalized predictions.

高度历史

Loading altitude history...

两行轨道根数

1 A0469U 26195E 26255.67721787 .00003363 00000-0 21184-3 0 9991
2 A0469 97.5359 329.1735 0011846 202.1666 157.9053 15.09782381 2806
Epoch: Sep 12, 2026 • Age: 13 hours

当前状态

高度 551.7 km
远地点 / 近地点 N/A
速度 7.59 km/s
星下点 48.40°N, 108.95°W
发射日期 Aug 25, 2026
运行时间 19 days
类型 other

技术详情

分类 Payload
质量 50.00 kg
干质量 50.00 kg
总质量 50.00 kg
长度 0.30 m
直径 0.30 m
跨度 1.00 m
形状 Box + 2 pan
制造商 TYSK
平台类型 ESP50
阶段状态 In Orbit
所有者/国家 BNU/CN

Most Searched